N31WX TBPB-TNCM

Flight info

Callsign N31WX
Flight time 0h 59m
Altitude 24000
Route SKB A517 PJM
Aircraft A319/M-SDE3FGHIRWY/LB1

Departure

Time 2026-04-30 11:38
Airport Grantley Adams International Airport (TBPB)

Arrival

Time 2026-04-30 12:38
Airport Princess Juliana International Airport (TNCM)
Time Latitude Longitude Altitude Speed Heading
2026-04-30 11:17 13.08031 -59.48160 173 ft 0 kts 345°
2026-04-30 11:31 13.08022 -59.48157 173 ft 4 kts 346°
2026-04-30 11:31 13.07995 -59.48151 173 ft 4 kts 348°
2026-04-30 11:31 13.07969 -59.48145 173 ft 4 kts 346°
2026-04-30 11:31 13.07943 -59.48137 173 ft 4 kts 328°
2026-04-30 11:32 13.07930 -59.48124 173 ft 2 kts 256°
2026-04-30 11:32 13.07930 -59.48122 173 ft 0 kts 252°
2026-04-30 11:33 13.07930 -59.48123 173 ft 1 kts 252°
2026-04-30 11:34 13.07925 -59.48141 173 ft 4 kts 256°
2026-04-30 11:34 13.07889 -59.48284 173 ft 50 kts 255°
2026-04-30 11:34 13.07828 -59.48530 173 ft 38 kts 255°
2026-04-30 11:34 13.07740 -59.48786 173 ft 37 kts 238°
2026-04-30 11:35 13.07684 -59.49006 174 ft 31 kts 255°
2026-04-30 11:35 13.07630 -59.49220 174 ft 31 kts 256°
2026-04-30 11:35 13.07578 -59.49434 173 ft 31 kts 256°
2026-04-30 11:35 13.07525 -59.49650 173 ft 31 kts 256°
2026-04-30 11:36 13.07471 -59.49867 173 ft 32 kts 256°
2026-04-30 11:36 13.07416 -59.50087 174 ft 32 kts 256°
2026-04-30 11:36 13.07361 -59.50309 174 ft 32 kts 256°
2026-04-30 11:36 13.07307 -59.50532 174 ft 32 kts 257°
2026-04-30 11:37 13.07253 -59.50708 173 ft 17 kts 224°
2026-04-30 11:37 13.07141 -59.50703 173 ft 17 kts 141°
2026-04-30 11:37 13.07126 -59.50593 174 ft 17 kts 77°
2026-04-30 11:37 13.07175 -59.50383 176 ft 64 kts 76°
2026-04-30 11:38 13.07355 -59.49658 174 ft 142 kts 75°
2026-04-30 11:38 13.07621 -59.48535 517 ft 174 kts 78°
2026-04-30 11:38 13.07899 -59.47331 1279 ft 174 kts 77°
2026-04-30 11:38 13.08242 -59.46096 1991 ft 191 kts 68°
2026-04-30 11:39 13.09242 -59.45104 2436 ft 218 kts 25°
2026-04-30 11:39 13.10847 -59.45034 2815 ft 252 kts 345°
2026-04-30 11:39 13.11936 -59.45541 3232 ft 266 kts 332°
2026-04-30 11:39 13.13476 -59.46651 4164 ft 272 kts 323°
2026-04-30 11:40 13.14938 -59.47897 5153 ft 275 kts 321°
2026-04-30 11:40 13.16402 -59.49178 6150 ft 277 kts 320°
2026-04-30 11:40 13.17889 -59.50447 7059 ft 280 kts 321°
2026-04-30 11:40 13.19419 -59.51708 7872 ft 285 kts 322°
2026-04-30 11:41 13.21006 -59.52973 8673 ft 292 kts 323°
2026-04-30 11:41 13.22640 -59.54250 9459 ft 298 kts 323°
2026-04-30 11:41 13.24315 -59.55543 10184 ft 306 kts 324°
2026-04-30 11:41 13.26087 -59.56903 10466 ft 330 kts 324°
2026-04-30 11:42 13.27986 -59.58355 10876 ft 346 kts 324°
2026-04-30 11:42 13.29943 -59.59852 11519 ft 353 kts 324°
2026-04-30 11:42 13.31927 -59.61373 12223 ft 358 kts 324°
2026-04-30 11:42 13.33938 -59.62919 12936 ft 363 kts 324°
2026-04-30 11:43 13.35972 -59.64485 13633 ft 368 kts 324°
2026-04-30 11:43 13.38031 -59.66071 14251 ft 372 kts 324°
2026-04-30 11:43 13.40116 -59.67678 14870 ft 376 kts 324°
2026-04-30 11:43 13.42187 -59.69276 15488 ft 379 kts 323°
2026-04-30 11:44 13.44306 -59.70911 16106 ft 383 kts 323°
2026-04-30 11:44 13.46449 -59.72562 16725 ft 386 kts 323°
2026-04-30 11:44 13.48607 -59.74224 17318 ft 390 kts 323°
2026-04-30 11:44 13.50788 -59.75905 17928 ft 393 kts 323°
2026-04-30 11:45 13.52984 -59.77599 18485 ft 397 kts 323°
2026-04-30 11:45 13.55203 -59.79309 18977 ft 400 kts 323°
2026-04-30 11:45 13.57440 -59.81032 19528 ft 403 kts 322°
2026-04-30 11:45 13.59689 -59.82766 20079 ft 405 kts 322°
2026-04-30 11:46 13.61949 -59.84508 20626 ft 408 kts 322°
2026-04-30 11:46 13.64229 -59.86265 21172 ft 410 kts 322°
2026-04-30 11:46 13.66516 -59.88030 21704 ft 413 kts 322°
2026-04-30 11:46 13.68818 -59.89807 22255 ft 415 kts 321°
2026-04-30 11:47 13.71132 -59.91593 22798 ft 417 kts 321°
2026-04-30 11:47 13.73461 -59.93393 23315 ft 420 kts 321°
2026-04-30 11:47 13.75804 -59.95203 23771 ft 423 kts 321°
2026-04-30 11:47 13.78159 -59.97020 23943 ft 423 kts 321°
2026-04-30 11:48 13.80498 -59.98829 23995 ft 414 kts 321°
2026-04-30 11:48 13.82785 -60.00599 24003 ft 408 kts 321°
2026-04-30 11:48 13.85044 -60.02348 24001 ft 406 kts 321°
2026-04-30 11:48 13.87278 -60.04076 24002 ft 406 kts 321°
2026-04-30 11:49 13.89532 -60.05819 24000 ft 406 kts 321°
2026-04-30 11:49 13.91788 -60.07569 23999 ft 405 kts 321°
2026-04-30 11:49 13.94046 -60.09320 24000 ft 405 kts 321°
2026-04-30 11:49 13.96299 -60.11063 24000 ft 405 kts 321°
2026-04-30 11:50 13.98550 -60.12803 24000 ft 404 kts 321°
2026-04-30 11:50 14.00797 -60.14541 23999 ft 404 kts 321°
2026-04-30 11:50 14.03045 -60.16279 24001 ft 404 kts 321°
2026-04-30 11:50 14.05294 -60.18023 23998 ft 404 kts 321°
2026-04-30 11:51 14.07536 -60.19766 23998 ft 404 kts 321°
2026-04-30 11:51 14.09780 -60.21508 23999 ft 404 kts 321°
2026-04-30 11:51 14.12023 -60.23247 23997 ft 404 kts 321°
2026-04-30 11:51 14.14266 -60.24986 23998 ft 404 kts 321°
2026-04-30 11:52 14.16513 -60.26730 24000 ft 404 kts 321°
2026-04-30 11:52 14.18754 -60.28469 24001 ft 403 kts 321°
2026-04-30 11:52 14.20998 -60.30211 23994 ft 403 kts 321°
2026-04-30 11:52 14.23239 -60.31950 23992 ft 403 kts 321°
2026-04-30 11:53 14.25480 -60.33687 23991 ft 403 kts 321°
2026-04-30 11:53 14.27721 -60.35425 23992 ft 403 kts 321°
2026-04-30 11:53 14.29961 -60.37169 23991 ft 403 kts 321°
2026-04-30 11:53 14.32196 -60.38913 23996 ft 403 kts 320°
2026-04-30 11:54 14.34410 -60.40640 23998 ft 403 kts 320°
2026-04-30 11:54 14.36645 -60.42381 23998 ft 403 kts 320°
2026-04-30 11:54 14.38879 -60.44120 23997 ft 403 kts 320°
2026-04-30 11:54 14.41144 -60.45881 23998 ft 402 kts 320°
2026-04-30 11:55 14.43379 -60.47619 23997 ft 402 kts 320°
2026-04-30 11:55 14.45614 -60.49354 23995 ft 402 kts 321°
2026-04-30 11:55 14.47849 -60.51090 23994 ft 402 kts 320°
2026-04-30 11:55 14.50082 -60.52827 23990 ft 402 kts 320°
2026-04-30 11:56 14.52313 -60.54565 23984 ft 402 kts 320°
2026-04-30 11:56 14.54544 -60.56306 23983 ft 402 kts 320°
2026-04-30 11:56 14.56745 -60.58028 23982 ft 402 kts 320°
2026-04-30 11:56 14.58971 -60.59767 23981 ft 402 kts 320°
2026-04-30 11:57 14.61202 -60.61505 23984 ft 402 kts 320°
2026-04-30 11:57 14.63435 -60.63243 23983 ft 402 kts 320°
2026-04-30 11:57 14.65663 -60.64978 23984 ft 402 kts 320°
2026-04-30 11:57 14.67894 -60.66718 23984 ft 402 kts 320°
2026-04-30 11:58 14.70120 -60.68458 23985 ft 401 kts 320°
2026-04-30 11:58 14.72347 -60.70199 23984 ft 401 kts 320°
2026-04-30 11:58 14.74572 -60.71940 23986 ft 401 kts 320°
2026-04-30 11:58 14.76795 -60.73681 23985 ft 401 kts 320°
2026-04-30 11:59 14.79017 -60.75421 23989 ft 401 kts 320°
2026-04-30 11:59 14.81242 -60.77164 23988 ft 401 kts 320°
2026-04-30 11:59 14.83466 -60.78904 23988 ft 401 kts 320°
2026-04-30 11:59 14.85691 -60.80644 23987 ft 401 kts 320°
2026-04-30 12:00 14.87919 -60.82387 23998 ft 401 kts 320°
2026-04-30 12:00 14.90143 -60.84129 23999 ft 401 kts 320°
2026-04-30 12:00 14.92368 -60.85873 23999 ft 401 kts 320°
2026-04-30 12:00 14.94591 -60.87612 23999 ft 401 kts 320°
2026-04-30 12:01 14.96818 -60.89352 23999 ft 401 kts 320°
2026-04-30 12:01 14.99049 -60.91097 23999 ft 401 kts 320°
2026-04-30 12:01 15.01277 -60.92842 24008 ft 401 kts 320°
2026-04-30 12:01 15.03504 -60.94588 24010 ft 401 kts 320°
2026-04-30 12:02 15.05695 -60.96307 24012 ft 401 kts 320°
2026-04-30 12:02 15.07914 -60.98049 24014 ft 401 kts 320°
2026-04-30 12:02 15.10137 -60.99793 24014 ft 401 kts 320°
2026-04-30 12:02 15.12361 -61.01540 24014 ft 401 kts 320°
2026-04-30 12:03 15.14577 -61.03282 24014 ft 400 kts 320°
2026-04-30 12:03 15.19013 -61.06768 24012 ft 400 kts 320°
2026-04-30 12:03 15.21235 -61.08511 24013 ft 400 kts 320°
2026-04-30 12:04 15.23457 -61.10252 24011 ft 400 kts 320°
2026-04-30 12:04 15.25673 -61.11992 24012 ft 400 kts 319°
2026-04-30 12:04 15.27884 -61.13731 24011 ft 399 kts 319°
2026-04-30 12:04 15.30098 -61.15475 24014 ft 401 kts 319°
2026-04-30 12:05 15.32367 -61.17267 24017 ft 418 kts 319°
2026-04-30 12:05 15.34719 -61.19129 24015 ft 433 kts 320°
2026-04-30 12:05 15.37154 -61.21055 24015 ft 447 kts 319°
2026-04-30 12:05 15.39662 -61.23033 24014 ft 458 kts 320°
2026-04-30 12:06 15.42230 -61.25055 24015 ft 469 kts 320°
2026-04-30 12:06 15.44857 -61.27121 24010 ft 478 kts 320°
2026-04-30 12:06 15.47533 -61.29224 24002 ft 487 kts 320°
2026-04-30 12:06 15.50251 -61.31361 24001 ft 494 kts 320°
2026-04-30 12:07 15.53015 -61.33538 24002 ft 500 kts 320°
2026-04-30 12:07 15.55783 -61.35719 24002 ft 501 kts 320°
2026-04-30 12:07 15.58523 -61.37876 24002 ft 500 kts 320°
2026-04-30 12:07 15.61291 -61.40057 24003 ft 500 kts 320°
2026-04-30 12:08 15.64065 -61.42246 24004 ft 501 kts 320°
2026-04-30 12:08 15.66834 -61.44437 24007 ft 501 kts 320°
2026-04-30 12:08 15.69603 -61.46632 24006 ft 500 kts 320°
2026-04-30 12:08 15.72371 -61.48825 24009 ft 500 kts 319°
2026-04-30 12:09 15.75136 -61.51015 24007 ft 499 kts 319°
2026-04-30 12:09 15.77900 -61.53204 24007 ft 499 kts 319°
2026-04-30 12:09 15.80659 -61.55386 24007 ft 498 kts 319°
2026-04-30 12:09 15.83419 -61.57568 24006 ft 498 kts 319°
2026-04-30 12:10 15.86191 -61.59760 24008 ft 498 kts 319°
2026-04-30 12:10 15.88951 -61.61944 24007 ft 499 kts 319°
2026-04-30 12:10 15.91714 -61.64132 24008 ft 499 kts 319°
2026-04-30 12:10 15.94447 -61.66296 24009 ft 499 kts 319°
2026-04-30 12:11 15.97209 -61.68488 24012 ft 499 kts 319°
2026-04-30 12:11 15.99964 -61.70678 23998 ft 499 kts 319°
2026-04-30 12:11 16.02721 -61.72871 23999 ft 499 kts 319°
2026-04-30 12:11 16.05476 -61.75067 23999 ft 499 kts 319°
2026-04-30 12:12 16.08240 -61.77271 24000 ft 499 kts 319°
2026-04-30 12:12 16.10997 -61.79465 23997 ft 498 kts 319°
2026-04-30 12:12 16.13750 -61.81651 23993 ft 498 kts 319°
2026-04-30 12:12 16.16510 -61.83838 23992 ft 499 kts 319°
2026-04-30 12:13 16.19270 -61.86027 23993 ft 499 kts 319°
2026-04-30 12:13 16.22029 -61.88223 23995 ft 499 kts 319°
2026-04-30 12:13 16.24782 -61.90418 23996 ft 499 kts 319°
2026-04-30 12:13 16.27539 -61.92617 24008 ft 499 kts 319°
2026-04-30 12:14 16.30295 -61.94812 24007 ft 499 kts 319°
2026-04-30 12:14 16.33053 -61.97006 24007 ft 499 kts 319°
2026-04-30 12:14 16.35809 -61.99201 24008 ft 499 kts 319°
2026-04-30 12:14 16.38565 -62.01402 24007 ft 499 kts 319°
2026-04-30 12:15 16.41321 -62.03603 24017 ft 499 kts 319°
2026-04-30 12:15 16.44079 -62.05801 24024 ft 499 kts 319°
2026-04-30 12:15 16.46836 -62.07996 24024 ft 499 kts 319°
2026-04-30 12:15 16.49557 -62.10161 24023 ft 498 kts 319°
2026-04-30 12:16 16.52310 -62.12355 24019 ft 498 kts 319°
2026-04-30 12:16 16.55060 -62.14552 24016 ft 498 kts 319°
2026-04-30 12:16 16.57807 -62.16754 24014 ft 498 kts 319°
2026-04-30 12:16 16.60552 -62.18957 24013 ft 498 kts 319°
2026-04-30 12:17 16.66039 -62.23358 24010 ft 498 kts 319°
2026-04-30 12:17 16.68781 -62.25554 24009 ft 497 kts 319°
2026-04-30 12:17 16.71524 -62.27752 24008 ft 497 kts 319°
2026-04-30 12:18 16.74270 -62.29951 24005 ft 497 kts 319°
2026-04-30 12:18 16.77012 -62.32144 24017 ft 497 kts 319°
2026-04-30 12:18 16.79752 -62.34340 24018 ft 496 kts 319°
2026-04-30 12:18 16.82484 -62.36534 24017 ft 496 kts 319°
2026-04-30 12:19 16.85218 -62.38732 24016 ft 496 kts 319°
2026-04-30 12:19 16.87951 -62.40926 24019 ft 495 kts 319°
2026-04-30 12:19 16.90685 -62.43118 24016 ft 495 kts 319°
2026-04-30 12:19 16.93415 -62.45307 24013 ft 495 kts 319°
2026-04-30 12:20 16.96154 -62.47504 24010 ft 495 kts 319°
2026-04-30 12:20 16.98907 -62.49682 23715 ft 495 kts 319°
2026-04-30 12:20 17.01664 -62.51821 23479 ft 494 kts 320°
2026-04-30 12:20 17.04431 -62.53942 23220 ft 492 kts 320°
2026-04-30 12:21 17.07191 -62.56051 22956 ft 491 kts 320°
2026-04-30 12:21 17.09942 -62.58159 22700 ft 488 kts 320°
2026-04-30 12:21 17.12626 -62.60220 21968 ft 470 kts 320°
2026-04-30 12:21 17.15197 -62.62200 20846 ft 461 kts 320°
2026-04-30 12:22 17.17749 -62.64178 19710 ft 453 kts 320°
2026-04-30 12:22 17.20270 -62.66140 18597 ft 448 kts 321°
2026-04-30 12:22 17.22753 -62.68075 17422 ft 442 kts 321°
2026-04-30 12:22 17.25200 -62.69983 16314 ft 435 kts 321°
2026-04-30 12:23 17.27603 -62.71855 15305 ft 427 kts 321°
2026-04-30 12:23 17.29967 -62.73698 14345 ft 420 kts 322°
2026-04-30 12:23 17.32297 -62.75507 13416 ft 413 kts 322°
2026-04-30 12:23 17.34587 -62.77281 12429 ft 406 kts 322°
2026-04-30 12:24 17.36845 -62.79033 11362 ft 401 kts 323°
2026-04-30 12:24 17.39072 -62.80765 10288 ft 397 kts 323°
2026-04-30 12:24 17.41276 -62.82482 9150 ft 393 kts 323°
2026-04-30 12:24 17.43450 -62.84177 8005 ft 387 kts 324°
2026-04-30 12:25 17.44879 -62.85291 7270 ft 384 kts 324°
2026-04-30 12:25 17.47004 -62.86944 6170 ft 378 kts 324°
2026-04-30 12:25 17.49102 -62.88575 5023 ft 372 kts 324°
2026-04-30 12:25 17.51165 -62.90179 3900 ft 367 kts 324°
2026-04-30 12:26 17.53165 -62.91736 3360 ft 347 kts 324°
2026-04-30 12:26 17.55032 -62.93193 3153 ft 321 kts 324°
2026-04-30 12:26 17.56752 -62.94538 3015 ft 296 kts 324°
2026-04-30 12:26 17.58334 -62.95778 2984 ft 277 kts 324°
2026-04-30 12:27 17.59850 -62.96961 2990 ft 274 kts 324°
2026-04-30 12:27 17.61380 -62.98151 2994 ft 275 kts 324°
2026-04-30 12:27 17.62915 -62.99344 2991 ft 274 kts 324°
2026-04-30 12:27 17.64446 -63.00537 2990 ft 274 kts 324°
2026-04-30 12:28 17.65981 -63.01733 2990 ft 275 kts 324°
2026-04-30 12:28 17.67508 -63.02924 2996 ft 273 kts 324°
2026-04-30 12:28 17.69035 -63.04118 2999 ft 274 kts 324°
2026-04-30 12:28 17.70570 -63.05318 2998 ft 275 kts 324°
2026-04-30 12:29 17.72103 -63.06517 2995 ft 274 kts 324°
2026-04-30 12:29 17.73632 -63.07714 2994 ft 274 kts 324°
2026-04-30 12:29 17.75158 -63.08909 2994 ft 274 kts 324°
2026-04-30 12:29 17.76682 -63.10101 2990 ft 269 kts 323°
2026-04-30 12:30 17.78133 -63.11237 2991 ft 252 kts 324°
2026-04-30 12:30 17.79496 -63.12306 2993 ft 237 kts 324°
2026-04-30 12:30 17.80788 -63.13320 2993 ft 230 kts 324°
2026-04-30 12:30 17.82074 -63.14326 2998 ft 230 kts 324°
2026-04-30 12:31 17.83356 -63.15328 2998 ft 229 kts 324°
2026-04-30 12:31 17.84635 -63.16325 2999 ft 229 kts 325°
2026-04-30 12:31 17.85917 -63.17325 2999 ft 229 kts 324°
2026-04-30 12:31 17.87197 -63.18325 3000 ft 230 kts 324°
2026-04-30 12:32 17.88477 -63.19326 3006 ft 230 kts 325°
2026-04-30 12:32 17.89757 -63.20326 3002 ft 229 kts 324°
2026-04-30 12:32 17.91017 -63.21314 3002 ft 229 kts 325°
2026-04-30 12:32 17.92290 -63.22311 3002 ft 227 kts 325°
2026-04-30 12:33 17.93561 -63.23311 3004 ft 229 kts 324°
2026-04-30 12:33 17.94839 -63.24317 3002 ft 230 kts 324°
2026-04-30 12:33 17.96122 -63.25325 3005 ft 230 kts 324°
2026-04-30 12:33 17.97401 -63.26328 3003 ft 229 kts 325°
2026-04-30 12:34 17.98757 -63.27138 2882 ft 223 kts 347°
2026-04-30 12:34 18.00226 -63.27113 2769 ft 206 kts 21°
2026-04-30 12:34 18.01404 -63.26349 2654 ft 196 kts 51°
2026-04-30 12:34 18.02039 -63.25130 2472 ft 190 kts 79°
2026-04-30 12:35 18.02249 -63.23773 2247 ft 187 kts 83°
2026-04-30 12:35 18.02449 -63.22413 2008 ft 188 kts 83°
2026-04-30 12:35 18.02634 -63.21087 1766 ft 185 kts 84°
2026-04-30 12:35 18.02820 -63.19747 1518 ft 186 kts 83°
2026-04-30 12:36 18.03011 -63.18410 1268 ft 184 kts 83°
2026-04-30 12:36 18.03199 -63.17078 1036 ft 182 kts 83°
2026-04-30 12:36 18.03384 -63.15794 804 ft 174 kts 82°
2026-04-30 12:36 18.03567 -63.14560 566 ft 169 kts 81°
2026-04-30 12:37 18.03743 -63.13352 314 ft 160 kts 79°
2026-04-30 12:37 18.03896 -63.12273 125 ft 143 kts 82°
2026-04-30 12:37 18.04036 -63.11314 30 ft 118 kts 83°
2026-04-30 12:37 18.04099 -63.10777 27 ft 54 kts 81°
2026-04-30 12:38 18.04106 -63.10499 27 ft 9 kts 117°
2026-04-30 12:38 18.04111 -63.10486 27 ft 0 kts 61°
2026-04-30 12:41 18.04111 -63.10485 27 ft 1 kts 68°
2026-04-30 12:41 18.04153 -63.10505 28 ft 14 kts 281°
2026-04-30 12:41 18.04125 -63.10677 27 ft 39 kts 261°
2026-04-30 12:41 18.04072 -63.11038 28 ft 53 kts 263°
2026-04-30 12:42 18.04233 -63.11219 29 ft 36 kts 354°
2026-04-30 12:42 18.04334 -63.11224 29 ft 9 kts 339°
2026-04-30 12:42 18.04350 -63.11227 29 ft 0 kts 350°